#timestamp,LO_Frequency,Hit,StdDev 
1588543255.6,286047000.3,P
1588543275.4,286046998.6,P
1588543295.3,286046999.0,N
1588543315.1,286046996.5,Y
1588543335.9,286046996.9,P
1588543355.7,286046997.0,N
1588543375.5,286046996.7,N
1588543395.4,286046997.7,N
1588543415.2,286046997.2,N
1588543435.1,286046996.8,Y
1588543436.0,286046996.8,P
1588543455.8,286047000.3,N
1588543475.6,286047002.3,N
1588543495.5,286047002.5,N
1588543515.3,286047001.9,N
1588543535.1,286047001.5,N
1588543555.9,286047001.5,N
1588543575.7,286047001.7,N
1588543595.6,286047003.1,N
1588543615.4,286047003.2,N
1588543635.2,286047003.0,N
1588543655.1,286047006.0,N
1588543656.0,286047006.0,N
1588543675.8,286047004.9,N
1588543695.7,286047009.0,Y
1588543715.5,286047005.4,P
1588543735.3,286047003.0,N
1588543755.2,286047001.4,N
1588543775.0,286047001.4,N
1588543775.9,286047001.4,N
1588543795.7,286047003.4,N
1588543815.6,286047005.7,Y
1588543835.4,286047003.6,P
1588543855.3,286047002.3,P
1588543875.1,286046999.3,N
1588543895.8,286046999.5,N
1588543915.7,286046999.2,N
1588543935.5,286047000.6,N
1588543955.4,286047002.3,N
1588543975.2,286047003.5,N
1588543995.0,286047005.9,Y
1588543995.9,286047005.9,P
1588544015.8,286047001.5,N
1588544035.6,286047003.9,N
1588544055.4,286047001.4,N
1588544075.3,286047003.8,N
1588544095.1,286047005.8,Y
1588544115.9,286047001.8,P
1588544135.7,286046999.7,N
1588544155.5,286047001.1,N
1588544175.4,286046998.7,N
1588544195.2,286046998.6,N
1588544215.0,286046998.6,N
1588544216.0,286046998.6,N
1588544235.8,286046999.9,N
1588544255.6,286047002.0,N
1588544275.5,286047003.6,N
1588544295.3,286047002.9,N
1588544315.1,286047005.9,Y
1588544335.9,286047003.6,P
1588544355.7,286047001.4,N
1588544375.6,286047004.0,P
1588544395.4,286047004.2,N
1588544415.2,286047003.1,N
1588544435.1,286047003.0,N
1588544436.0,286047003.0,N
1588544455.8,286047004.8,Y
1588544475.7,286047004.3,P
1588544495.5,286047003.2,P
1588544515.3,286047005.4,P
1588544535.2,286047005.3,Y
1588544555.0,286046999.9,P
1588544555.9,286046999.9,N
1588544575.8,286047002.6,N
1588544595.6,286047002.3,N
1588544615.4,286047000.0,N
1588544635.3,286047000.9,N
1588544655.1,286047002.7,N
1588544675.8,286047002.0,N
1588544695.7,286047000.2,N
1588544715.5,286047001.2,N
1588544735.4,286046999.9,N
1588544755.2,286047000.0,N
1588544775.0,286047000.2,N
1588544775.9,286047000.2,N
1588544795.8,286047000.2,N
1588544815.6,286046999.7,N
1588544835.4,286047004.4,Y
1588544855.3,286047000.6,P
1588544875.1,286046998.7,P
1588544895.9,286046998.2,N
1588544915.7,286046999.9,N
1588544935.5,286047000.0,N
1588544955.4,286047002.8,N
1588544975.2,286047002.3,N
1588544995.0,286047002.1,N
1588544995.9,286047002.1,N
1588545015.8,286046999.8,N
1588545035.6,286047001.9,N
1588545055.5,286047002.0,N
1588545075.3,286047001.5,N
1588545095.1,286047001.9,N
1588545115.9,286047004.1,Y
1588545135.7,286047002.0,P
1588545155.6,286047001.9,P
1588545175.4,286047004.0,P
1588545195.2,286047005.9,Y
1588545215.1,286047000.4,P
1588545216.0,286047000.4,N
1588545235.8,286047002.8,P
1588545255.7,286047003.5,Y
1588545275.5,286047003.6,P
1588545295.3,286047003.6,P
1588545315.2,286047001.8,N
1588545335.0,286047001.5,N
1588545335.9,286047001.5,N
1588545355.8,286047003.2,Y
1588545375.6,286047001.9,P
1588545395.4,286047001.5,P
1588545415.3,286047003.2,P
1588545435.1,286047006.0,Y
1588545455.9,286046999.9,P
1588545475.7,286046999.7,N
1588545495.5,286046999.7,N
1588545515.4,286047001.7,N
1588545535.2,286047003.7,Y
1588545555.0,286047006.0,P
1588545556.0,286047006.0,N
1588545575.8,286047004.7,N
1588545595.6,286047007.4,Y
1588545615.5,286047002.5,P
1588545635.3,286047002.0,N
1588545655.1,286047001.7,N
1588545675.9,286047003.9,Y
1588545695.7,286047001.9,P
1588545715.6,286047004.0,P
1588545735.4,286047003.9,P
1588545755.2,286047003.0,Y
1588545775.1,286047001.4,P
1588545776.0,286047001.4,N
1588545795.8,286047004.1,P
1588545815.7,286047001.9,N
1588545835.5,286046999.9,N
1588545855.3,286047000.0,N
1588545875.2,286047000.0,N
1588545895.9,286046999.8,N
1588545915.7,286047003.2,N
1588545935.6,286047007.5,Y
1588545955.4,286047004.9,P
1588545975.3,286047009.2,P
1588545995